Location: *
(55.5817°S, 142.4781°W)
Time: 06:54:49
(UTC+00:00)

Cosmos 1140 Rocket - Pass Details

Date: 29 April 2025
Orbit: 740 x 762 km, 74.1° (Epoch: 23 May)

Event Time Altitude Azimuth Distance (km) Brightness Sun altitude
Exits shadow 15:28:22 11° 227° (SW) 2,269 5.5 -11.9°
Maximum altitude 15:32:27 25° 280° (W) 1,506 4.5 -11.3°
Drops below altitude 10° 15:36:39 10° 334° (NNW) 2,300 5.8 -10.8°
Sets 15:39:22 0° 346° (NNW) 3,221 6.7 -10.4°
